Location: Val-d'Or
(48.1170°N, 77.7670°W)
Time: 14:30:30
(UTC-04:00)

Tiangong 2 - Visible Passes

Search period start: 20 August 2018 00:00
Search period end: 30 August 2018 00:00
Orbit: 384 x 395 km, 42.8° (Epoch: 20 August)

Date Brightness Start Highest point End Pass type
(mag) Time Alt. Az. Time Alt. Az. Time Alt. Az.
20 Aug 2.9 04:44:00 17° S 04:44:53 19° SSE 04:47:16 10° ESE visible
21 Aug 3.9 03:48:46 11° SE 03:48:46 11° SE 03:49:03 10° ESE visible
21 Aug 2.3 05:21:05 13° SW 05:23:30 29° S 05:26:21 10° ESE visible
22 Aug 2.5 04:25:51 25° SSE 04:25:51 25° SSE 04:28:27 10° ESE visible
23 Aug 2.1 05:02:56 21° SW 05:04:24 31° S 05:07:17 10° ESE visible
24 Aug 2.8 04:07:45 23° SE 04:07:45 23° SE 04:09:28 10° ESE visible
24 Aug 2.4 05:40:18 10° WSW 05:43:03 26° S 05:45:47 10° SE visible
25 Aug 2.1 04:44:59 29° SSW 04:45:16 29° S 04:48:07 10° ESE visible
26 Aug 3.8 03:49:59 12° ESE 03:49:59 12° ESE 03:50:21 10° ESE visible
26 Aug 2.7 05:22:19 15° SW 05:23:51 20° SSW 05:26:19 10° SSE visible
27 Aug 3.0 04:27:27 19° SSE 04:27:27 19° SSE 04:28:47 10° SE visible
28 Aug 3.2 05:05:08 14° S 05:05:08 14° S 05:06:27 10° SSE visible
